SDT,��Ԑ��ʗ��i��Gy/h�j,�����ʗ��i��Gy/h),�~�J��i�����j,���J��,�����l�i��Gy/h�j,����l�i��Gy/h�j,�ߋ��̍ő�l�i��Gy/h�j
20110401010000,,,,,0.036,0.055,0.09
20110401020000,,,,,,,
20110401030000,,,,,,,
20110401040000,,,,,,,
20110401050000,,,,,,,
20110401060000,,,,,,,
20110401070000,,,,,,,
20110401080000,,,,,,,
20110401090000,,,,,,,
20110401100000,,,,,,,
20110401110000,,,,,,,
20110401120000,,,,,,,
20110401130000,,,,,,,
20110401140000,,,,,,,
20110401150000,,,,,,,
20110401160000,,,,,,,
20110401170000,,,,,,,
20110401180000,,,,,,,
20110401190000,,,,,,,
20110401200000,,,,,,,
20110401210000,,,,,,,
20110401220000,,,,,,,
20110401230000,,,,,,,
20110402000000,,,,,,,
20110402010000,,,,,,,
20110402020000,,,,,,,
20110402030000,,,,,,,
20110402040000,,,,,,,
20110402050000,,,,,,,
20110402060000,,,,,,,
20110402070000,,,,,,,
20110402080000,,,,,,,
20110402090000,,,,,,,
20110402100000,,,,,,,
20110402110000,,,,,,,
20110402120000,,,,,,,
20110402130000,,,,,,,
20110402140000,,,,,,,
20110402150000,,,,,,,
20110402160000,,,,,,,
20110402170000,,,,,,,
20110402180000,,,,,,,
20110402190000,,,,,,,
20110402200000,,,,,,,
20110402210000,,,,,,,
20110402220000,,,,,,,
20110402230000,,,,,,,
20110403000000,,,,,,,
20110403010000,,,,,,,
20110403020000,,,,,,,
20110403030000,,,,,,,
20110403040000,,,,,,,
20110403050000,,,,,,,
20110403060000,,,,,,,
20110403070000,,,,,,,
20110403080000,,,,,,,
20110403090000,,,,,,,
20110403100000,,,,,,,
20110403110000,,,,,,,
20110403120000,,,,,,,
20110403130000,,,,,,,
20110403140000,,,,,,,
20110403150000,,,,,,,
20110403160000,,,,,,,
20110403170000,,,,,,,
20110403180000,,,,,,,
20110403190000,,,,,,,
20110403200000,,,,,,,
20110403210000,,,,,,,
20110403220000,,,,,,,
20110403230000,,,,,,,
20110404000000,,,,,,,
20110404010000,,,,,,,
20110404020000,,,,,,,
20110404250000,,,,,,,
20110404040000,,,,,,,
20110404050000,,,,,,,
20110404060000,,,,,,,
20110404070000,,,,,,,
20110404080000,,,,,,,
20110404090000,,,,,,,
20110404100000,,,,,,,
20110404110000,,,,,,,
20110404120000,,,,,,,
20110404130000,,,,,,,
20110404140000,,,,,,,
20110404150000,,,,,,,
20110404160000,,,,,,,
20110404170000,,,,,,,
20110404180000,,,,,,,
20110404190000,,,,,,,
20110404200000,,,,,,,
20110404210000,,,,,,,
20110404220000,,,,,,,
20110404230000,,,,,,,
20110405000000,,,,,,,
20110405010000,,,,,,,
20110405020000,,,,,,,
20110405030000,,,,,,,
20110405040000,,,,,,,
20110405050000,,,,,,,
20110405060000,,,,,,,
20110405070000,,,,,,,
20110405080000,,,,,,,
20110405090000,,,,,,,
20110405100000,,,,,,,
20110405110000,,,,,,,
20110405120000,,,,,,,
20110405130000,,,,,,,
20110405140000,,,,,,,
20110405150000,,,,,,,
20110405160000,,,,,,,
20110405170000,,,,,,,
20110405180000,,,,,,,
20110405190000,,,,,,,
20110405200000,,,,,,,
20110405210000,,,,,,,
20110405220000,,,,,,,
20110405230000,,,,,,,
20110406000000,,,,,,,
20110406010000,,,,,,,
20110406020000,,,,,,,
20110406030000,,,,,,,
20110406040000,,,,,,,
20110406050000,,,,,,,
20110406060000,,,,,,,
20110406070000,,,,,,,
20110406080000,,,,,,,
20110406090000,,,,,,,
20110406100000,,,,,,,
20110406110000,,,,,,,
20110406120000,,,,,,,
20110406130000,,,,,,,
20110406140000,,,,,,,
20110406150000,,,,,,,
20110406160000,,,,,,,
20110406170000,,,,,,,
20110406180000,,,,,,,
20110406190000,,,,,,,
20110406200000,,,,,,,
20110406210000,,,,,,,
20110406220000,,,,,,,
20110406230000,,,,,,,
20110407000000,,,,,,,
20110407010000,,,,,,,
20110407020000,,,,,,,
20110407030000,,,,,,,
20110407040000,,,,,,,
20110407050000,,,,,,,
20110407060000,,,,,,,
20110407070000,,,,,,,
20110407080000,,,,,,,
20110407090000,,,,,,,
20110407100000,,,,,,,
20110407110000,,,,,,,
20110407120000,,,,,,,
20110407130000,,,,,,,
20110407140000,,,,,,,
20110407150000,,,,,,,
20110407160000,,,,,,,
20110407170000,,,,,,,
20110407180000,,,,,,,
20110407190000,,,,,,,
20110407200000,,,,,,,
20110407210000,,,,,,,
20110407220000,,,,,,,
20110407230000,,,,,,,
20110408000000,,,,,,,
20110408010000,,,,,,,
20110408020000,,,,,,,
20110408030000,,,,,,,
20110408040000,,,,,,,
20110408050000,,,,,,,
20110408060000,,,,,,,
20110408070000,,,,,,,
20110408080000,,,,,,,
20110408090000,,,,,,,
20110408100000,,,,,,,
20110408110000,,,,,,,
20110408120000,,,,,,,
20110408130000,,,,,,,
20110408140000,,,,,,,
20110408150000,,,,,,,
20110408160000,,,,,,,
20110408170000,,,,,,,
20110408180000,,,,,,,
20110408190000,,,,,,,
20110408200000,,,,,,,
20110408210000,,,,,,,
20110408220000,,,,,,,
20110408230000,,,,,,,
20110409000000,,,,,,,
20110409010000,,,,,,,
20110409020000,,,,,,,
20110409030000,,,,,,,
20110409040000,,,,,,,
20110409050000,,,,,,,
20110409060000,,,,,,,
20110409070000,,,,,,,
20110409080000,,,,,,,
20110409090000,,,,,,,
20110409100000,,,,,,,
20110409110000,,,,,,,
20110409120000,,,,,,,
20110409130000,,,,,,,
20110409140000,,,,,,,
20110409150000,,,,,,,
20110409160000,,,,,,,
20110409170000,,,,,,,
20110409180000,,,,,,,
20110409190000,,,,,,,
20110409200000,,,,,,,
20110409210000,,,,,,,
20110409220000,,,,,,,
20110409230000,,,,,,,
20110410000000,,,,,,,
20110410010000,,,,,,,
20110410020000,,,,,,,
20110410030000,,,,,,,
20110410040000,,,,,,,
20110410050000,,,,,,,
20110410060000,,,,,,,
20110410070000,,,,,,,
20110410080000,,,,,,,
20110410090000,,,,,,,
20110410100000,,,,,,,
20110410110000,,,,,,,
20110410120000,,,,,,,
20110410130000,,,,,,,
20110410140000,,,,,,,
20110410150000,,,,,,,
20110410160000,,,,,,,
20110410170000,,,,,,,
20110410180000,,,,,,,
20110410190000,,,,,,,
20110410200000,,,,,,,
20110410210000,,,,,,,
20110410220000,,,,,,,
20110410230000,,,,,,,
20110411000000,,,,,,,
20110411010000,,,,,,,
20110411020000,,,,,,,
20110411030000,,,,,,,
20110411040000,,,,,,,
20110411050000,,,,,,,
20110411060000,,,,,,,
20110411070000,,,,,,,
20110411080000,,,,,,,
20110411090000,,,,,,,
20110411100000,,,,,,,
20110411110000,,,,,,,
20110411120000,,,,,,,
20110411130000,,,,,,,
20110411140000,,,,,,,
20110411150000,,,,,,,
20110411160000,,,,,,,
20110411170000,,,,,,,
20110411180000,,,,,,,
20110411190000,,,,,,,
20110411200000,,,,,,,
20110411210000,,,,,,,
20110411220000,,,,,,,
20110411230000,,,,,,,
20110412000000,,,,,,,
20110412010000,,,,,,,
20110412020000,,,,,,,
20110412030000,,,,,,,
20110412040000,,,,,,,
20110412050000,,,,,,,
20110412060000,,,,,,,
20110412070000,,,,,,,
20110412080000,,,,,,,
20110412090000,,,,,,,
20110412100000,,,,,,,
20110412110000,,,,,,,
20110412120000,,,,,,,
20110412130000,,,,,,,
20110412140000,,,,,,,
20110412150000,,,,,,,
20110412160000,,,,,,,
20110412170000,,,,,,,
20110412180000,,,,,,,
20110412190000,,,,,,,
20110412200000,,,,,,,
20110412210000,,,,,,,
20110412220000,,,,,,,
20110412230000,,,,,,,
20110413000000,,,,,,,
20110413010000,,,,,,,
20110413020000,,,,,,,
20110413030000,,,,,,,
20110413040000,,,,,,,
20110413050000,,,,,,,
20110413060000,,,,,,,
20110413070000,,,,,,,
20110413080000,,,,,,,
20110413090000,,,,,,,
20110413100000,,,,,,,
20110413110000,,,,,,,
20110413120000,,,,,,,
20110413130000,,,,,,,
20110413140000,,,,,,,
20110413150000,,,,,,,
20110413160000,,,,,,,
20110413170000,,,,,,,
20110413180000,,,,,,,
20110413190000,,,,,,,
20110413200000,,,,,,,
20110413210000,,,,,,,
20110413220000,,,,,,,
20110413230000,,,,,,,
20110414000000,,,,,,,
20110414010000,,,,,,,
20110414020000,,,,,,,
20110414030000,,,,,,,
20110414040000,,,,,,,
20110414050000,,,,,,,
20110414060000,,,,,,,
20110414070000,,,,,,,
20110414080000,,,,,,,
20110414090000,,,,,,,
20110414100000,,,,,,,
20110414110000,,,,,,,
20110414120000,,,,0,,,
20110414130000,1.24,1.06,,0,,,
20110414140000,1.25,1.07,,0,,,
20110414150000,1.23,1.06,,0,,,
20110414160000,1.3,1.13,,0,,,
20110414170000,1.31,1.14,,0,,,
20110414180000,1.26,1.1,,0,,,
20110414190000,1.25,1.09,,0,,,
20110414200000,1.24,1.08,,0,,,
20110414210000,1.24,1.07,,0,,,
20110414220000,1.24,1.07,,0,,,
20110414230000,1.24,1.07,,0,,,
20110415000000,1.23,1.07,,0,,,
20110415010000,1.24,1.06,,0,,,
20110415020000,1.23,1.06,,0,,,
20110415030000,1.25,1.07,,0,,,
20110415040000,1.26,1.08,,0,,,
20110415050000,1.25,1.08,,0,,,
20110415060000,1.24,1.07,,0,,,
20110415070000,1.23,1.06,,0,,,
20110415080000,1.23,1.06,,0,,,
20110415090000,1.23,1.06,,0,,,
20110415100000,1.22,1.06,,0,,,
20110415110000,1.22,1.05,,0,,,
20110415120000,1.21,1.05,,0,,,
20110415130000,1.23,1.05,,0,,,
20110415140000,1.2,1.05,,0,,,
20110415150000,1.28,1.08,,0,,,
20110415160000,1.32,1.13,,0,,,
20110415170000,1.27,1.1,,0,,,
20110415180000,1.26,1.09,,0,,,
20110415190000,1.22,1.08,,0,,,
20110415200000,1.23,1.06,,0,,,
20110415210000,1.23,1.06,,0,,,
20110415220000,1.21,1.06,,0,,,
20110415230000,1.21,1.06,,0,,,
20110416000000,1.23,1.06,,0,,,
20110416010000,1.24,1.06,,0,,,
20110416020000,1.22,1.06,,0,,,
20110416030000,1.22,1.05,,0,,,
20110416040000,1.22,1.05,,0,,,
20110416050000,1.21,1.05,,0,,,
20110416060000,1.21,1.05,,0,,,
20110416070000,1.22,1.05,,0,,,
20110416080000,1.21,1.05,,0,,,
20110416090000,1.21,1.05,,0,,,
20110416100000,1.23,1.06,,0,,,
20110416110000,1.21,1.05,,0,,,
20110416120000,1.22,1.05,,0,,,
20110416130000,1.21,1.06,,1,,,
20110416140000,1.21,1.05,,1,,,
20110416150000,1.19,1.04,,0,,,
20110416160000,1.17,1.04,,0,,,
20110416170000,1.18,1.04,,0,,,
20110416180000,1.18,1.03,,0,,,
20110416190000,1.18,1.03,,0,,,
20110416200000,1.17,1.03,,0,,,
20110416210000,1.17,1.03,,0,,,
20110416220000,1.17,1.03,,0,,,
20110416230000,1.16,1.02,,0,,,
20110417000000,1.18,1.02,,0,,,
20110417010000,1.18,1.02,,0,,,
20110417020000,1.17,1.02,,0,,,
20110417030000,1.18,1.02,,0,,,
20110417040000,1.17,1.01,,0,,,
20110417050000,1.18,1.01,,0,,,
20110417060000,1.19,1.02,,0,,,
20110417070000,1.18,1.02,,0,,,
20110417080000,1.18,1.01,,0,,,
20110417090000,1.19,1.01,,0,,,
20110417100000,1.17,1.01,,0,,,
20110417110000,1.18,1.01,,0,,,
20110417120000,1.17,1.01,,0,,,
20110417130000,1.17,1.01,,0,,,
20110417140000,1.16,1.01,,0,,,
20110417150000,1.16,1.01,,0,,,
20110417160000,1.16,1.01,,0,,,
20110417170000,1.21,1.04,,0,,,
20110417180000,1.21,1.05,,0,,,
20110417190000,1.17,1.02,,0,,,
20110417200000,1.18,1.04,,0,,,
20110417210000,1.17,1.02,,0,,,
20110417220000,1.19,1.03,,0,,,
20110417230000,1.17,1.02,,0,,,
20110418000000,1.17,1.01,,0,,,
20110418010000,1.17,1.01,,0,,,
20110418020000,1.17,1.01,,0,,,
20110418030000,1.17,1.01,,0,,,
20110418040000,1.16,1.01,,0,,,
20110418050000,1.17,1.01,,0,,,
20110418060000,1.17,1.01,,0,,,
20110418070000,1.16,1,,0,,,
20110418080000,1.16,1,,0,,,
20110418090000,1.16,1,,0,,,
20110418100000,1.16,1,,0,,,
20110418110000,1.16,1,,0,,,
20110418120000,1.16,1,,0,,,
20110418130000,1.15,0.997,,0,,,
20110418140000,1.15,0.995,,0,,,
20110418150000,1.15,0.997,,0,,,
20110418160000,1.15,0.994,,0,,,
20110418170000,1.14,0.992,,0,,,
20110418180000,1.14,0.996,,0,,,
20110418190000,1.16,1.02,,0,,,
20110418200000,1.17,1.02,,0,,,
20110418210000,1.16,1,,0,,,
20110418220000,1.14,0.998,,0,,,
20110418230000,1.14,0.993,,0,,,
20110419000000,1.16,0.993,,0,,,
20110419010000,1.14,0.988,,0,,,
20110419020000,1.14,0.988,,0,,,
20110419030000,1.13,0.986,,1,,,
20110419040000,1.15,0.986,,0,,,
20110419050000,1.15,0.986,,1,,,
20110419060000,1.13,0.984,,1,,,
20110419070000,1.14,0.98,,1,,,
20110419080000,1.13,0.978,,1,,,
20110419090000,1.14,0.978,,1,,,
20110419100000,1.13,0.975,,1,,,
20110419110000,1.13,0.972,,1,,,
20110419120000,1.12,0.966,,1,,,
20110419130000,1.11,0.957,,1,,,
20110419140000,1.1,0.945,,1,,,
20110419150000,1.09,0.939,,1,,,
20110419160000,1.07,0.923,,1,,,
20110419170000,1.08,0.921,,1,,,
20110419180000,1.07,0.916,,1,,,
20110419190000,1.06,0.909,,1,,,
20110419200000,1.05,0.903,,1,,,
20110419210000,1.05,0.903,,1,,,
20110419220000,1.05,0.903,,1,,,
20110419230000,1.06,0.903,,1,,,
20110420000000,1.05,0.903,,1,,,
20110420010000,1.05,0.905,,0,,,
20110420020000,1.05,0.903,,0,,,
20110420030000,1.05,0.903,,0,,,
20110420040000,1.05,0.903,,0,,,
20110420050000,1.06,0.903,,0,,,
20110420060000,1.05,0.903,,0,,,
20110420070000,1.05,0.903,,1,,,
20110420080000,1.05,0.903,,1,,,
20110420090000,1.05,0.903,,0,,,
20110420100000,1.05,0.904,,0,,,
20110420110000,1.04,0.903,,0,,,
20110420120000,1.05,0.903,,1,,,
20110420130000,1.05,0.902,,1,,,
20110420140000,1.05,0.9,,1,,,
20110420150000,1.04,0.9,,1,,,
20110420160000,1.04,0.898,,1,,,
20110420170000,1.03,0.897,,0,,,
20110420180000,1.06,0.896,,0,,,
20110420190000,1.03,0.896,,0,,,
20110420200000,1.03,0.894,,0,,,
20110420210000,1.03,0.893,,0,,,
20110420220000,1.03,0.893,,0,,,
20110420230000,1.03,0.892,,0,,,
20110421000000,1.03,0.893,,0,,,
20110421010000,1.03,0.891,,0,,,
20110421020000,1.03,0.893,,0,,,
20110421030000,1.03,0.892,,0,,,
20110421040000,1.03,0.895,,0,,,
20110421050000,1.02,0.889,,0,,,
20110421060000,1.03,0.888,,0,,,
20110421070000,1.03,0.887,,0,,,
20110421080000,1.05,0.898,,0,,,
20110421090000,1.03,0.894,,0,,,
20110421100000,1.03,0.892,,0,,,
20110421110000,1.03,0.888,,0,,,
20110421120000,1.02,0.888,,0,,,
20110421130000,1.01,0.888,,0,,,
20110421140000,1.01,0.887,,0,,,
20110421150000,1.01,0.89,,0,,,
20110421160000,1.01,0.883,,0,,,
20110421170000,1.01,0.884,,0,,,
20110421180000,1.02,0.883,,0,,,
20110421190000,1.02,0.885,,0,,,
20110421200000,1.02,0.889,,0,,,
20110421210000,1.02,0.886,,0,,,
20110421220000,1.03,0.888,,0,,,
20110421230000,1.04,0.897,,0,,,
20110422000000,1.03,0.888,,0,,,
20110422010000,1.03,0.895,,0,,,
20110422020000,1.04,0.898,,0,,,
20110422030000,1.06,0.902,,0,,,
20110422040000,1.03,0.893,,1,,,
20110422050000,1.02,0.888,,1,,,
20110422060000,1.01,0.884,,1,,,
20110422070000,1.01,0.882,,1,,,
20110422080000,1.01,0.879,,1,,,
20110422090000,1.01,0.878,,1,,,
20110422100000,1,0.875,,1,,,
20110422110000,1.03,0.875,,1,,,
20110422120000,1,0.875,,1,,,
20110422130000,1.01,0.873,,1,,,
20110422140000,1,0.873,,1,,,
20110422150000,1,0.873,,0,,,
20110422160000,1,0.873,,0,,,
20110422170000,1.01,0.87,,0,,,
20110422180000,1,0.873,,0,,,
20110422190000,0.998,0.869,,1,,,
20110422200000,1,0.87,,0,,,
20110422210000,1,0.869,,0,,,
20110422220000,0.999,0.868,,1,,,
20110422230000,0.99,0.866,,1,,,
20110423000000,0.998,0.869,,0,,,
20110423010000,0.997,0.865,,1,,,
20110423020000,0.998,0.864,,1,,,
20110423030000,0.995,0.862,,0,,,
20110423040000,0.993,0.861,,1,,,
20110423050000,0.995,0.863,,1,,,
20110423060000,0.998,0.862,,1,,,
20110423070000,0.99,0.86,,1,,,
20110423080000,0.99,0.858,,1,,,
20110423090000,0.99,0.855,,1,,,
20110423100000,0.986,0.864,,1,,,
20110423110000,0.991,0.862,,1,,,
20110423120000,1.01,0.873,,1,,,
20110423130000,1.01,0.879,,1,,,
20110423140000,1,0.875,,1,,,
20110423150000,0.993,0.875,,1,,,
20110423160000,0.997,0.875,,1,,,
20110423170000,0.987,0.871,,1,,,
20110423180000,0.998,0.875,,1,,,
20110423190000,1,0.882,,1,,,
20110423200000,1.01,0.888,,1,,,
20110423210000,1.02,0.889,,1,,,
20110423220000,1.02,0.893,,1,,,
20110423230000,1.02,0.896,,1,,,
20110424000000,1.01,0.886,,1,,,
20110424010000,0.995,0.867,,1,,,
20110424020000,0.99,0.865,,1,,,
20110424030000,0.992,0.865,,1,,,
20110424040000,0.977,0.861,,1,,,
20110424050000,0.985,0.861,,0,,,
20110424060000,0.982,0.857,,0,,,
20110424070000,0.985,0.861,,1,,,
20110424080000,0.985,0.861,,0,,,
20110424090000,0.98,0.861,,0,,,
20110424100000,0.985,0.861,,0,,,
20110424110000,0.975,0.862,,0,,,
20110424120000,0.992,0.862,,0,,,
20110424130000,0.985,0.863,,0,,,
20110424140000,0.975,0.863,,0,,,
20110424150000,0.975,0.861,,0,,,
20110424160000,0.977,0.864,,1,,,
20110424170000,0.977,0.864,,1,,,
20110424180000,0.985,0.867,,1,,,
20110424190000,0.985,0.868,,1,,,
20110424200000,1,0.876,,1,,,
20110424210000,1,0.881,,0,,,
20110424220000,0.987,0.863,,0,,,
20110424230000,0.98,0.86,,0,,,
20110425000000,0.987,0.86,,0,,,
20110425010000,0.979,0.857,,0,,,
20110425020000,0.982,0.86,,0,,,
20110425030000,0.986,0.86,,0,,,
20110425040000,0.986,0.858,,0,,,
20110425050000,0.977,0.855,,0,,,
20110425060000,0.981,0.857,,0,,,
20110425070000,0.982,0.858,,0,,,
20110425080000,0.994,0.861,,0,,,
20110425090000,1.01,0.868,,0,,,
20110425100000,1,0.862,,0,,,
20110425110000,0.981,0.859,,0,,,
20110425120000,0.992,0.859,,1,,,
20110425130000,0.98,0.859,,1,,,
20110425140000,0.981,0.86,,1,,,
20110425150000,0.984,0.857,,0,,,
20110425160000,0.986,0.856,,0,,,
20110425170000,0.977,0.854,,0,,,
20110425180000,1.09,0.854,,0,,,
20110425190000,0.972,0.853,,0,,,
20110425200000,0.97,0.854,,0,,,
20110425210000,0.962,0.85,,0,,,
20110425220000,0.967,0.85,,0,,,
20110425230000,0.973,0.849,,0,,,
20110426000000,0.973,0.849,,0,,,
20110426010000,0.973,0.847,,0,,,
20110426020000,0.968,0.846,,0,,,
20110426030000,0.968,0.845,,0,,,
20110426040000,0.971,0.845,,0,,,
20110426050000,0.973,0.844,,0,,,
20110426060000,0.971,0.845,,0,,,
20110426070000,0.966,0.845,,0,,,
20110426080000,0.967,0.846,,0,,,
20110426090000,0.981,0.853,,0,,,
20110426100000,0.976,0.849,,0,,,
20110426110000,0.98,0.847,,0,,,
20110426120000,0.977,0.848,,0,,,
20110426130000,0.963,0.846,,0,,,
20110426140000,0.963,0.847,,0,,,
20110426150000,0.958,0.846,,0,,,
20110426160000,0.974,0.851,,0,,,
20110426170000,0.965,0.852,,1,,,
20110426180000,0.973,0.851,,0,,,
20110426190000,1.1,0.858,,0,,,
20110426200000,0.963,0.848,,0,,,
20110426210000,0.971,0.846,,0,,,
20110426220000,0.977,0.851,,0,,,
20110426230000,0.973,0.848,,0,,,
20110427000000,0.971,0.849,,0,,,
20110427010000,0.963,0.846,,0,,,
20110427020000,0.976,0.848,,0,,,
20110427030000,0.976,0.848,,0,,,
20110427040000,0.967,0.846,,0,,,
20110427050000,0.963,0.844,,0,,,
20110427060000,0.956,0.841,,0,,,
20110427070000,0.949,0.839,,0,,,
20110427080000,0.957,0.842,,0,,,
20110427090000,0.962,0.844,,0,,,
20110427100000,0.954,0.841,,0,,,
20110427110000,0.956,0.838,,0,,,
20110427120000,0.955,0.842,,0,,,
20110427130000,0.961,0.842,,0,,,
20110427140000,0.962,0.843,,0,,,
20110427150000,0.962,0.846,,0,,,
20110427160000,0.952,0.849,,0,,,
20110427170000,0.953,0.848,,0,,,
20110427180000,0.962,0.846,,0,,,
20110427190000,0.96,0.845,,0,,,
20110427200000,0.961,0.846,,0,,,
20110427210000,0.949,0.842,,0,,,
20110427220000,0.951,0.841,,0,,,
20110427230000,0.956,0.844,,0,,,
20110428000000,0.953,0.845,,0,,,
20110428010000,0.957,0.843,,1,,,
20110428020000,0.964,0.847,,1,,,
20110428030000,0.96,0.845,,1,,,
20110428040000,0.962,0.846,,1,,,
20110428050000,0.962,0.842,,1,,,
20110428060000,0.954,0.831,,1,,,
20110428070000,0.944,0.83,,1,,,
20110428080000,0.941,0.827,,1,,,
20110428090000,0.935,0.823,,1,,,
20110428100000,0.927,0.82,,0,,,
20110428110000,0.948,0.822,,0,,,
20110428120000,0.934,0.821,,0,,,
20110428130000,0.935,0.819,,0,,,
20110428140000,0.931,0.823,,0,,,
20110428150000,0.928,0.821,,0,,,
20110428160000,0.928,0.822,,0,,,
20110428170000,0.931,0.821,,0,,,
20110428180000,0.94,0.823,,0,,,
20110428190000,0.918,0.82,,0,,,
20110428200000,0.939,0.819,,0,,,
20110428210000,0.931,0.82,,0,,,
20110428220000,0.925,0.818,,0,,,
20110428230000,0.936,0.818,,0,,,
20110429000000,0.939,0.816,,0,,,
20110429010000,0.915,0.815,,0,,,
20110429020000,0.916,0.816,,0,,,
20110429030000,0.919,0.816,,0,,,
20110429040000,0.926,0.817,,0,,,
20110429050000,0.925,0.815,,0,,,
20110429060000,0.925,0.815,,0,,,
20110429070000,0.928,0.815,,0,,,
20110429080000,0.927,0.814,,0,,,
20110429090000,0.925,0.813,,0,,,
20110429100000,0.927,0.815,,0,,,
20110429110000,0.925,0.815,,0,,,
20110429120000,0.929,0.816,,0,,,
20110429130000,0.927,0.814,,0,,,
20110429140000,0.925,0.812,,0,,,
20110429150000,0.915,0.813,,0,,,
20110429160000,0.924,0.811,,1,,,
20110429170000,0.918,0.809,,0,,,
20110429180000,0.921,0.81,,0,,,
20110429190000,0.903,0.806,,0,,,
20110429200000,0.914,0.806,,0,,,
20110429210000,0.918,0.805,,0,,,
20110429220000,0.921,0.809,,0,,,
20110429230000,0.917,0.804,,0,,,
20110430000000,0.914,0.805,,0,,,
20110430010000,0.918,0.806,,0,,,
20110430020000,0.917,0.802,,0,,,
20110430030000,0.922,0.803,,0,,,
20110430040000,0.932,0.804,,0,,,
20110430050000,0.929,0.803,,0,,,
20110430060000,0.925,0.802,,0,,,
20110430070000,0.914,0.802,,0,,,
20110430080000,0.909,0.802,,0,,,
20110430090000,0.916,0.804,,0,,,
20110430100000,0.929,0.808,,0,,,
20110430110000,0.913,0.806,,0,,,
20110430120000,0.907,0.805,,0,,,
20110430130000,0.926,0.807,,0,,,
20110430140000,0.916,0.804,,0,,,
20110430150000,0.939,0.886,,0,,,
20110430160000,0.917,0.809,,0,,,
20110430170000,0.921,0.81,,0,,,
20110430180000,0.925,0.81,,0,,,
20110430190000,0.921,0.811,,0,,,
20110430200000,0.931,0.817,,0,,,
20110430210000,0.909,0.809,,0,,,
20110430220000,0.921,0.81,,0,,,
20110430230000,0.929,0.814,,0,,,
20110501000000,0.925,0.811,,0,,,
20110501010000,0.901,0.799,,0,,,
20110501020000,0.892,0.8,,0,,,
20110501030000,0.9,0.799,,0,,,
20110501040000,0.896,0.798,,0,,,
20110501050000,0.909,0.808,,1,,,
20110501060000,0.898,0.806,,1,,,
20110501070000,0.911,0.816,,1,,,
20110501080000,0.901,0.809,,0,,,
20110501090000,0.915,0.809,,1,,,
20110501100000,0.927,0.808,,1,,,
20110501110000,0.92,0.807,,1,,,
20110501120000,0.906,0.811,,0,,,
20110501130000,0.914,0.809,,0,,,
20110501140000,0.904,0.808,,0,,,
20110501150000,0.919,0.807,,0,,,
20110501160000,0.909,0.805,,0,,,
20110501170000,0.906,0.806,,0,,,
20110501180000,0.904,0.805,,0,,,
20110501190000,0.914,0.807,,0,,,
20110501200000,0.904,0.81,,1,,,
20110501210000,0.904,0.807,,0,,,
20110501220000,0.905,0.804,,0,,,
20110501230000,0.892,0.801,,0,,,
20110502000000,0.898,0.801,,0,,,
20110502010000,0.9,0.8,,0,,,
20110502020000,0.907,0.798,,0,,,
20110502030000,0.901,0.794,,0,,,
20110502040000,0.893,0.792,,0,,,
20110502050000,0.899,0.792,,0,,,
20110502060000,0.899,0.79,,0,,,
20110502070000,0.893,0.79,,0,,,
20110502080000,0.885,0.79,,0,,,
20110502090000,0.877,0.788,,0,,,
20110502100000,0.882,0.79,,0,,,
20110502110000,0.889,0.79,,0,,,
20110502120000,0.894,0.789,,0,,,
20110502130000,0.89,0.788,,0,,,
20110502140000,0.876,0.789,,0,,,
20110502150000,0.884,0.789,,0,,,
20110502160000,0.887,0.788,,0,,,
20110502170000,0.874,0.784,,0,,,
20110502180000,0.891,0.784,,0,,,
20110502190000,0.881,0.786,,0,,,
20110502200000,0.879,0.785,,0,,,
20110502210000,0.87,0.782,,0,,,
20110502220000,0.885,0.78,,0,,,
20110502230000,0.875,0.781,,0,,,
20110503000000,0.872,0.781,,0,,,
20110503010000,0.882,0.779,,0,,,
20110503020000,0.871,0.779,,0,,,
20110503030000,0.882,0.778,,0,,,
20110503040000,0.887,0.778,,0,,,
20110503050000,0.875,0.778,,0,,,
20110503060000,0.888,0.777,,0,,,
20110503070000,0.884,0.778,,0,,,
20110503080000,0.877,0.778,,0,,,
20110503090000,0.882,0.777,,0,,,
20110503100000,0.874,0.778,,0,,,
20110503110000,0.894,0.778,,0,,,
20110503120000,0.873,0.779,,0,,,
20110503130000,0.872,0.776,,0,,,
20110503140000,0.864,0.776,,0,,,
20110503150000,0.866,0.775,,0,,,
20110503160000,0.889,0.776,,0,,,
20110503170000,0.884,0.777,,0,,,
20110503180000,0.879,0.775,,1,,,
20110503190000,0.879,0.776,,1,,,
20110503200000,0.881,0.781,,1,,,
20110503210000,0.883,0.788,,1,,,
20110503220000,0.888,0.781,,1,,,
20110503230000,0.88,0.774,,1,,,
20110504000000,0.871,0.776,,1,,,
20110504010000,0.883,0.778,,1,,,
20110504020000,0.883,0.775,,1,,,
20110504230000,0.878,0.772,,1,,,
20110504040000,0.875,0.772,,1,,,
20110504050000,0.876,0.769,,1,,,
20110504060000,0.87,0.769,,0,,,
20110504070000,0.877,0.772,,0,,,
20110504080000,0.882,0.772,,0,,,
20110504090000,0.878,0.772,,0,,,
20110504100000,0.873,0.771,,0,,,
20110504110000,0.881,0.772,,0,,,
20110504120000,0.879,0.773,,0,,,
20110504130000,0.873,0.774,,0,,,
20110504140000,0.864,0.772,,0,,,
20110504150000,0.87,0.773,,0,,,
20110504160000,0.874,0.772,,0,,,
20110504170000,0.875,0.771,,0,,,
20110504180000,0.866,0.771,,0,,,
20110504190000,0.866,0.768,,0,,,
20110504200000,0.861,0.768,,0,,,
20110504210000,0.867,0.769,,0,,,
20110504220000,0.864,0.767,,0,,,
20110504230000,0.864,0.767,,0,,,
20110505000000,0.861,0.765,,0,,,
20110505010000,0.858,0.766,,0,,,
20110505020000,0.857,0.764,,0,,,
20110505030000,0.855,0.764,,0,,,